LOCATION_NAME,SAMPLE COLLECTION TIME,DOSE EQUIVALENT RATE (nSv/h),GAMMA COUNT RATE R02 (CPM),GAMMA COUNT RATE R03 (CPM),GAMMA COUNT RATE R04 (CPM),GAMMA COUNT RATE R05 (CPM),GAMMA COUNT RATE R06 (CPM),GAMMA COUNT RATE R07 (CPM),GAMMA COUNT RATE R08 (CPM),GAMMA COUNT RATE R09 (CPM),STATUS
OH: TOLEDO,01/01/2014 00:13:00,,1473.00,701.00,199.00,86.00,55.00,70.00,27.00,20.00,APPROVED
OH: TOLEDO,01/01/2014 01:13:00,,1490.00,713.00,203.00,88.00,55.00,71.00,26.00,19.00,APPROVED
OH: TOLEDO,01/01/2014 02:13:00,,1517.00,732.00,207.00,90.00,55.00,74.00,28.00,21.00,APPROVED
OH: TOLEDO,01/01/2014 03:13:00,,1514.00,735.00,207.00,88.00,59.00,75.00,29.00,20.00,APPROVED
OH: TOLEDO,01/01/2014 04:13:00,,1518.00,735.00,207.00,89.00,57.00,74.00,29.00,21.00,APPROVED
OH: TOLEDO,01/01/2014 05:14:00,,1515.00,737.00,210.00,93.00,57.00,75.00,30.00,21.00,APPROVED
OH: TOLEDO,01/01/2014 06:14:00,,1538.00,754.00,212.00,92.00,58.00,77.00,29.00,21.00,APPROVED
OH: TOLEDO,01/01/2014 07:14:00,,1560.00,778.00,224.00,96.00,61.00,79.00,30.00,20.00,APPROVED
OH: TOLEDO,01/01/2014 08:14:00,,1533.00,758.00,216.00,94.00,61.00,79.00,29.00,20.00,APPROVED
OH: TOLEDO,01/01/2014 09:15:00,,1515.00,737.00,210.00,91.00,56.00,73.00,28.00,21.00,APPROVED
OH: TOLEDO,01/01/2014 10:15:00,,1555.00,772.00,222.00,95.00,58.00,76.00,31.00,22.00,APPROVED
OH: TOLEDO,01/01/2014 11:15:00,,1556.00,762.00,223.00,95.00,59.00,77.00,29.00,21.00,APPROVED
OH: TOLEDO,01/01/2014 12:15:00,,1540.00,756.00,219.00,93.00,58.00,75.00,29.00,21.00,APPROVED
OH: TOLEDO,01/01/2014 13:16:00,,1539.00,749.00,217.00,94.00,58.00,75.00,27.00,21.00,APPROVED
OH: TOLEDO,01/01/2014 14:16:00,,1499.00,736.00,211.00,91.00,57.00,73.00,28.00,19.00,APPROVED
OH: TOLEDO,01/01/2014 15:16:00,,1448.00,693.00,201.00,88.00,54.00,70.00,26.00,20.00,APPROVED
OH: TOLEDO,01/01/2014 16:16:00,,1405.00,667.00,187.00,82.00,51.00,67.00,25.00,20.00,APPROVED
OH: TOLEDO,01/01/2014 17:16:00,,1374.00,643.00,182.00,79.00,49.00,63.00,24.00,19.00,APPROVED
OH: TOLEDO,01/01/2014 18:17:00,,1360.00,628.00,177.00,80.00,49.00,62.00,25.00,19.00,APPROVED
OH: TOLEDO,01/01/2014 19:17:00,,1363.00,638.00,177.00,79.00,49.00,64.00,25.00,19.00,APPROVED
OH: TOLEDO,01/01/2014 20:17:00,,1415.00,666.00,189.00,80.00,51.00,66.00,25.00,20.00,APPROVED
OH: TOLEDO,01/01/2014 21:17:00,,1367.00,636.00,180.00,80.00,49.00,66.00,25.00,20.00,APPROVED
OH: TOLEDO,01/01/2014 22:18:00,,1459.00,696.00,199.00,86.00,52.00,69.00,27.00,20.00,APPROVED
OH: TOLEDO,01/01/2014 23:18:00,,1488.00,715.00,205.00,89.00,56.00,73.00,27.00,20.00,APPROVED
OH: TOLEDO,01/02/2014 00:18:00,,1455.00,701.00,200.00,89.00,52.00,69.00,28.00,19.00,APPROVED
OH: TOLEDO,01/02/2014 01:18:00,,1428.00,682.00,193.00,82.00,52.00,69.00,25.00,19.00,APPROVED
OH: TOLEDO,01/02/2014 02:19:00,,1427.00,675.00,196.00,84.00,51.00,68.00,27.00,20.00,APPROVED
OH: TOLEDO,01/02/2014 03:19:00,,1390.00,656.00,186.00,81.00,50.00,67.00,25.00,20.00,APPROVED
OH: TOLEDO,01/02/2014 04:19:00,,1367.00,642.00,182.00,80.00,49.00,64.00,24.00,19.00,APPROVED
OH: TOLEDO,01/02/2014 05:19:00,,1377.00,644.00,182.00,78.00,48.00,64.00,25.00,19.00,APPROVED
OH: TOLEDO,01/02/2014 06:19:00,,1343.00,626.00,179.00,79.00,47.00,64.00,26.00,19.00,APPROVED
OH: TOLEDO,01/02/2014 07:20:00,,1408.00,669.00,192.00,80.00,51.00,64.00,26.00,19.00,APPROVED
OH: TOLEDO,01/02/2014 08:20:00,,1414.00,671.00,193.00,84.00,52.00,69.00,26.00,21.00,APPROVED
OH: TOLEDO,01/02/2014 09:20:00,,1396.00,664.00,189.00,81.00,52.00,67.00,26.00,20.00,APPROVED
OH: TOLEDO,01/02/2014 10:20:00,,1433.00,675.00,194.00,83.00,52.00,66.00,27.00,20.00,APPROVED
OH: TOLEDO,01/02/2014 11:21:00,,1408.00,667.00,191.00,83.00,51.00,67.00,25.00,19.00,APPROVED
OH: TOLEDO,01/02/2014 12:21:00,,1406.00,668.00,195.00,83.00,50.00,67.00,26.00,19.00,APPROVED
OH: TOLEDO,01/02/2014 13:21:00,,1427.00,679.00,197.00,84.00,53.00,67.00,27.00,19.00,APPROVED
OH: TOLEDO,01/02/2014 14:21:00,,1469.00,710.00,207.00,87.00,55.00,71.00,27.00,20.00,APPROVED
OH: TOLEDO,01/02/2014 15:22:00,,1473.00,704.00,206.00,89.00,56.00,70.00,29.00,20.00,APPROVED
OH: TOLEDO,01/02/2014 16:22:00,,1420.00,676.00,198.00,83.00,52.00,67.00,25.00,19.00,APPROVED
OH: TOLEDO,01/02/2014 17:22:00,,1395.00,653.00,190.00,82.00,51.00,63.00,26.00,20.00,APPROVED
OH: TOLEDO,01/02/2014 18:22:00,,1353.00,625.00,178.00,78.00,48.00,63.00,24.00,20.00,APPROVED
OH: TOLEDO,01/02/2014 19:22:00,,1306.00,602.00,172.00,75.00,47.00,60.00,22.00,21.00,APPROVED
OH: TOLEDO,01/02/2014 20:23:00,,1264.00,572.00,160.00,70.00,45.00,57.00,23.00,19.00,APPROVED
OH: TOLEDO,01/02/2014 21:23:00,,1250.00,560.00,156.00,71.00,44.00,55.00,22.00,19.00,APPROVED
OH: TOLEDO,01/02/2014 22:23:00,,1259.00,564.00,160.00,72.00,43.00,56.00,22.00,18.00,APPROVED
OH: TOLEDO,01/02/2014 23:23:00,,1264.00,565.00,162.00,69.00,44.00,55.00,23.00,19.00,APPROVED
OH: TOLEDO,01/03/2014 00:24:00,,1250.00,556.00,158.00,70.00,44.00,55.00,22.00,19.00,APPROVED
OH: TOLEDO,01/03/2014 01:24:00,,1254.00,562.00,159.00,70.00,43.00,55.00,22.00,18.00,APPROVED
OH: TOLEDO,01/03/2014 02:24:00,,1254.00,559.00,158.00,69.00,43.00,54.00,22.00,20.00,APPROVED
OH: TOLEDO,01/03/2014 03:24:00,,1248.00,554.00,158.00,72.00,43.00,54.00,22.00,21.00,APPROVED
OH: TOLEDO,01/03/2014 04:25:00,,1241.00,552.00,156.00,71.00,43.00,55.00,22.00,20.00,APPROVED
OH: TOLEDO,01/03/2014 05:25:00,,1238.00,549.00,155.00,70.00,42.00,55.00,22.00,21.00,APPROVED
OH: TOLEDO,01/03/2014 06:25:00,,1222.00,544.00,153.00,69.00,43.00,54.00,22.00,22.00,APPROVED
OH: TOLEDO,01/03/2014 07:25:00,,1224.00,538.00,158.00,69.00,44.00,54.00,22.00,23.00,APPROVED
OH: TOLEDO,01/03/2014 08:25:00,,1214.00,541.00,151.00,69.00,44.00,55.00,21.00,23.00,APPROVED
OH: TOLEDO,01/03/2014 09:26:00,,1214.00,540.00,153.00,70.00,44.00,52.00,21.00,23.00,APPROVED
OH: TOLEDO,01/03/2014 10:26:00,,1223.00,537.00,153.00,67.00,42.00,53.00,23.00,22.00,APPROVED
OH: TOLEDO,01/03/2014 11:26:00,,1204.00,530.00,151.00,70.00,42.00,52.00,22.00,22.00,APPROVED
OH: TOLEDO,01/03/2014 12:26:00,,1201.00,533.00,153.00,70.00,42.00,51.00,23.00,22.00,APPROVED
OH: TOLEDO,01/03/2014 13:27:00,,1181.00,524.00,151.00,68.00,44.00,51.00,23.00,21.00,APPROVED
OH: TOLEDO,01/03/2014 14:27:00,,1196.00,535.00,155.00,68.00,43.00,51.00,22.00,22.00,APPROVED
OH: TOLEDO,01/03/2014 15:27:00,,1246.00,556.00,156.00,69.00,43.00,52.00,22.00,23.00,APPROVED
OH: TOLEDO,01/03/2014 16:27:00,,1293.00,576.00,166.00,72.00,46.00,55.00,23.00,20.00,APPROVED
OH: TOLEDO,01/03/2014 17:28:00,,1321.00,593.00,167.00,73.00,46.00,59.00,23.00,19.00,APPROVED
OH: TOLEDO,01/03/2014 18:28:00,,1295.00,590.00,169.00,73.00,45.00,58.00,22.00,19.00,APPROVED
OH: TOLEDO,01/03/2014 19:28:00,,1306.00,595.00,170.00,76.00,46.00,58.00,24.00,18.00,APPROVED
OH: TOLEDO,01/03/2014 20:28:00,,1299.00,599.00,171.00,74.00,46.00,60.00,24.00,19.00,APPROVED
OH: TOLEDO,01/03/2014 21:28:00,,1330.00,610.00,175.00,74.00,47.00,60.00,24.00,19.00,APPROVED
OH: TOLEDO,01/03/2014 22:29:00,,1320.00,604.00,172.00,76.00,47.00,59.00,24.00,21.00,APPROVED
OH: TOLEDO,01/03/2014 23:29:00,,1334.00,612.00,175.00,74.00,47.00,62.00,25.00,21.00,APPROVED
OH: TOLEDO,01/04/2014 00:29:00,,1347.00,622.00,179.00,74.00,48.00,60.00,24.00,21.00,APPROVED
OH: TOLEDO,01/04/2014 01:29:00,,1367.00,626.00,179.00,79.00,50.00,62.00,25.00,20.00,APPROVED
OH: TOLEDO,01/04/2014 02:30:00,,1379.00,634.00,179.00,78.00,49.00,62.00,25.00,21.00,APPROVED
OH: TOLEDO,01/04/2014 03:30:00,,1369.00,637.00,180.00,79.00,49.00,63.00,25.00,20.00,APPROVED
OH: TOLEDO,01/04/2014 04:30:00,,1372.00,640.00,184.00,79.00,51.00,64.00,26.00,19.00,APPROVED
OH: TOLEDO,01/04/2014 05:30:00,,1372.00,627.00,183.00,80.00,50.00,62.00,24.00,19.00,APPROVED
OH: TOLEDO,01/04/2014 06:30:00,,1352.00,622.00,182.00,79.00,49.00,62.00,25.00,21.00,APPROVED
OH: TOLEDO,01/04/2014 07:31:00,,1347.00,622.00,178.00,78.00,48.00,64.00,26.00,20.00,APPROVED
OH: TOLEDO,01/04/2014 08:31:00,,1347.00,615.00,179.00,76.00,47.00,62.00,24.00,20.00,APPROVED
OH: TOLEDO,01/04/2014 09:31:00,,1359.00,630.00,180.00,78.00,49.00,63.00,26.00,20.00,APPROVED
OH: TOLEDO,01/04/2014 10:31:00,,1358.00,631.00,184.00,79.00,50.00,62.00,26.00,19.00,APPROVED
OH: TOLEDO,01/04/2014 11:32:00,,1392.00,642.00,182.00,80.00,51.00,63.00,26.00,20.00,APPROVED
OH: TOLEDO,01/04/2014 12:32:00,,1376.00,636.00,183.00,80.00,49.00,62.00,25.00,19.00,APPROVED
OH: TOLEDO,01/04/2014 13:32:00,,1358.00,632.00,177.00,79.00,49.00,64.00,24.00,20.00,APPROVED
OH: TOLEDO,01/04/2014 14:32:00,,1355.00,638.00,183.00,78.00,48.00,62.00,25.00,18.00,APPROVED
OH: TOLEDO,01/04/2014 15:33:00,,1355.00,646.00,183.00,80.00,48.00,65.00,26.00,19.00,APPROVED
OH: TOLEDO,01/04/2014 16:33:00,,1367.00,664.00,185.00,82.00,51.00,67.00,26.00,20.00,APPROVED
OH: TOLEDO,01/04/2014 17:33:00,,1373.00,680.00,191.00,84.00,52.00,71.00,28.00,20.00,APPROVED
OH: TOLEDO,01/04/2014 18:33:00,,1382.00,679.00,194.00,85.00,52.00,72.00,28.00,20.00,APPROVED
OH: TOLEDO,01/04/2014 19:34:00,,1390.00,686.00,194.00,89.00,50.00,71.00,29.00,21.00,APPROVED
OH: TOLEDO,01/04/2014 20:34:00,,1383.00,681.00,192.00,86.00,52.00,69.00,28.00,20.00,APPROVED
OH: TOLEDO,01/04/2014 21:34:00,,1376.00,676.00,190.00,85.00,53.00,69.00,29.00,20.00,APPROVED
OH: TOLEDO,01/04/2014 22:34:00,,1373.00,672.00,189.00,88.00,52.00,67.00,29.00,19.00,APPROVED
OH: TOLEDO,01/04/2014 23:34:00,,1397.00,682.00,194.00,85.00,52.00,68.00,27.00,18.00,APPROVED
OH: TOLEDO,01/05/2014 00:35:00,,1398.00,688.00,195.00,88.00,51.00,69.00,29.00,20.00,APPROVED
OH: TOLEDO,01/05/2014 01:35:00,,1398.00,694.00,193.00,87.00,54.00,72.00,29.00,19.00,APPROVED
OH: TOLEDO,01/05/2014 02:35:00,,1415.00,699.00,195.00,88.00,56.00,72.00,30.00,21.00,APPROVED
OH: TOLEDO,01/05/2014 03:35:00,,1417.00,691.00,194.00,86.00,52.00,71.00,29.00,21.00,APPROVED
OH: TOLEDO,01/05/2014 04:36:00,,1426.00,704.00,194.00,89.00,53.00,72.00,28.00,21.00,APPROVED
OH: TOLEDO,01/05/2014 05:36:00,,1422.00,708.00,198.00,88.00,55.00,72.00,30.00,20.00,APPROVED
OH: TOLEDO,01/05/2014 06:36:00,,1444.00,727.00,202.00,92.00,56.00,75.00,32.00,20.00,APPROVED
OH: TOLEDO,01/05/2014 07:36:00,,1470.00,746.00,211.00,98.00,57.00,77.00,32.00,21.00,APPROVED
OH: TOLEDO,01/05/2014 08:38:00,,1509.00,778.00,227.00,103.00,60.00,81.00,34.00,21.00,APPROVED
OH: TOLEDO,01/05/2014 09:38:00,,1480.00,760.00,222.00,98.00,60.00,81.00,34.00,21.00,APPROVED
OH: TOLEDO,01/05/2014 10:38:00,,1431.00,721.00,205.00,93.00,55.00,74.00,32.00,20.00,APPROVED
OH: TOLEDO,01/05/2014 11:38:00,,1420.00,709.00,202.00,92.00,55.00,72.00,31.00,20.00,APPROVED
OH: TOLEDO,01/05/2014 12:38:00,,1429.00,723.00,206.00,91.00,56.00,74.00,31.00,22.00,APPROVED
OH: TOLEDO,01/05/2014 13:39:00,,1592.00,852.00,245.00,110.00,63.00,89.00,36.00,22.00,APPROVED
OH: TOLEDO,01/05/2014 14:39:00,,1740.00,972.00,281.00,129.00,74.00,105.00,42.00,23.00,APPROVED
OH: TOLEDO,01/05/2014 15:39:00,,1716.00,949.00,284.00,127.00,73.00,103.00,43.00,21.00,APPROVED
OH: TOLEDO,01/05/2014 16:39:00,,1559.00,857.00,252.00,113.00,67.00,91.00,36.00,23.00,APPROVED
OH: TOLEDO,01/05/2014 17:40:00,,1473.00,769.00,225.00,101.00,61.00,84.00,34.00,22.00,APPROVED
OH: TOLEDO,01/05/2014 18:40:00,,1489.00,792.00,224.00,104.00,60.00,83.00,35.00,21.00,APPROVED
OH: TOLEDO,01/05/2014 19:40:00,,1564.00,852.00,252.00,113.00,66.00,92.00,39.00,22.00,APPROVED
OH: TOLEDO,01/05/2014 20:40:00,,1669.00,929.00,271.00,123.00,72.00,100.00,42.00,23.00,APPROVED
OH: TOLEDO,01/05/2014 21:41:00,,1724.00,965.00,288.00,127.00,75.00,102.00,42.00,23.00,APPROVED
OH: TOLEDO,01/05/2014 22:41:00,,2067.00,1203.00,359.00,156.00,88.00,128.00,50.00,25.00,APPROVED
OH: TOLEDO,01/05/2014 23:41:00,,2072.00,1201.00,356.00,155.00,89.00,122.00,50.00,24.00,APPROVED
OH: TOLEDO,01/06/2014 00:41:00,,1868.00,1051.00,309.00,133.00,78.00,107.00,44.00,24.00,APPROVED
OH: TOLEDO,01/06/2014 01:41:00,,1756.00,966.00,283.00,121.00,73.00,103.00,42.00,22.00,APPROVED
OH: TOLEDO,01/06/2014 02:42:00,,1704.00,922.00,272.00,115.00,69.00,96.00,37.00,22.00,APPROVED
OH: TOLEDO,01/06/2014 03:42:00,,1710.00,919.00,268.00,110.00,68.00,94.00,39.00,22.00,APPROVED
OH: TOLEDO,01/06/2014 04:42:00,,1723.00,925.00,272.00,114.00,68.00,92.00,36.00,22.00,APPROVED
OH: TOLEDO,01/06/2014 05:42:00,,1509.00,759.00,224.00,94.00,60.00,78.00,32.00,20.00,APPROVED
OH: TOLEDO,01/06/2014 06:43:00,,1352.00,658.00,189.00,79.00,50.00,66.00,28.00,20.00,APPROVED
OH: TOLEDO,01/06/2014 07:43:00,,1300.00,627.00,182.00,78.00,48.00,65.00,25.00,18.00,APPROVED
OH: TOLEDO,01/06/2014 08:43:00,,1248.00,597.00,172.00,73.00,45.00,61.00,25.00,19.00,APPROVED
OH: TOLEDO,01/06/2014 09:43:00,,1241.00,574.00,165.00,71.00,44.00,59.00,24.00,19.00,APPROVED
OH: TOLEDO,01/06/2014 10:44:00,,1236.00,573.00,165.00,71.00,44.00,56.00,25.00,19.00,APPROVED
OH: TOLEDO,01/06/2014 11:44:00,,1221.00,567.00,161.00,70.00,43.00,57.00,22.00,19.00,APPROVED
OH: TOLEDO,01/06/2014 12:44:00,,1225.00,561.00,161.00,71.00,43.00,55.00,22.00,19.00,APPROVED
OH: TOLEDO,01/06/2014 13:44:00,,1225.00,557.00,160.00,71.00,42.00,56.00,22.00,20.00,APPROVED
OH: TOLEDO,01/06/2014 14:44:00,,1222.00,550.00,157.00,69.00,42.00,55.00,23.00,21.00,APPROVED
OH: TOLEDO,01/06/2014 15:45:00,,1190.00,536.00,157.00,69.00,42.00,54.00,23.00,23.00,APPROVED
OH: TOLEDO,01/06/2014 16:45:00,,1219.00,548.00,158.00,71.00,42.00,54.00,23.00,22.00,APPROVED
OH: TOLEDO,01/06/2014 17:45:00,,1236.00,562.00,163.00,70.00,47.00,52.00,24.00,21.00,APPROVED
OH: TOLEDO,01/06/2014 18:45:00,,1242.00,567.00,166.00,73.00,46.00,54.00,24.00,21.00,APPROVED
OH: TOLEDO,01/06/2014 19:46:00,,1244.00,570.00,170.00,73.00,46.00,55.00,23.00,20.00,APPROVED
OH: TOLEDO,01/06/2014 20:46:00,,1235.00,566.00,168.00,71.00,44.00,56.00,24.00,20.00,APPROVED
OH: TOLEDO,01/06/2014 21:46:00,,1221.00,558.00,168.00,71.00,46.00,54.00,23.00,18.00,APPROVED
OH: TOLEDO,01/06/2014 22:46:00,,1191.00,543.00,164.00,72.00,45.00,53.00,23.00,18.00,APPROVED
OH: TOLEDO,01/06/2014 23:47:00,,1167.00,532.00,158.00,69.00,44.00,50.00,23.00,19.00,APPROVED
OH: TOLEDO,01/07/2014 00:47:00,,1154.00,522.00,156.00,69.00,44.00,49.00,22.00,19.00,APPROVED
OH: TOLEDO,01/07/2014 01:47:00,,1151.00,518.00,156.00,69.00,44.00,49.00,22.00,18.00,APPROVED
OH: TOLEDO,01/07/2014 02:47:00,,1152.00,524.00,156.00,68.00,44.00,51.00,23.00,18.00,APPROVED
OH: TOLEDO,01/07/2014 03:47:00,,1157.00,531.00,159.00,69.00,45.00,51.00,22.00,17.00,APPROVED
OH: TOLEDO,01/07/2014 04:48:00,,1182.00,533.00,160.00,69.00,47.00,51.00,23.00,18.00,APPROVED
OH: TOLEDO,01/07/2014 05:48:00,,1178.00,539.00,161.00,73.00,46.00,49.00,23.00,19.00,APPROVED
OH: TOLEDO,01/07/2014 06:48:00,,1182.00,538.00,163.00,71.00,46.00,52.00,22.00,18.00,APPROVED
OH: TOLEDO,01/07/2014 07:48:00,,1182.00,544.00,166.00,72.00,48.00,53.00,23.00,17.00,APPROVED
OH: TOLEDO,01/07/2014 08:49:00,,1193.00,544.00,164.00,72.00,46.00,53.00,24.00,17.00,APPROVED
OH: TOLEDO,01/07/2014 09:49:00,,1192.00,554.00,165.00,71.00,47.00,51.00,23.00,18.00,APPROVED
OH: TOLEDO,01/07/2014 10:49:00,,1205.00,554.00,166.00,72.00,45.00,52.00,23.00,17.00,APPROVED
OH: TOLEDO,01/07/2014 11:49:00,,1209.00,554.00,165.00,71.00,47.00,52.00,25.00,18.00,APPROVED
OH: TOLEDO,01/07/2014 12:50:00,,1206.00,554.00,171.00,74.00,47.00,54.00,25.00,18.00,APPROVED
OH: TOLEDO,01/07/2014 13:50:00,,1208.00,564.00,172.00,75.00,48.00,51.00,25.00,17.00,APPROVED
OH: TOLEDO,01/07/2014 14:50:00,,1223.00,564.00,171.00,76.00,48.00,53.00,24.00,18.00,APPROVED
OH: TOLEDO,01/07/2014 15:50:00,,1240.00,573.00,172.00,73.00,49.00,53.00,25.00,18.00,APPROVED
OH: TOLEDO,01/07/2014 16:50:00,,1241.00,575.00,176.00,74.00,48.00,55.00,24.00,19.00,APPROVED
OH: TOLEDO,01/07/2014 17:51:00,,1244.00,575.00,170.00,72.00,47.00,56.00,24.00,21.00,APPROVED
OH: TOLEDO,01/07/2014 18:51:00,,1258.00,577.00,170.00,75.00,48.00,54.00,25.00,21.00,APPROVED
OH: TOLEDO,01/07/2014 19:51:00,,1266.00,589.00,169.00,73.00,48.00,56.00,24.00,23.00,APPROVED
OH: TOLEDO,01/07/2014 20:51:00,,1249.00,575.00,172.00,73.00,47.00,56.00,24.00,22.00,APPROVED
OH: TOLEDO,01/07/2014 21:52:00,,1227.00,558.00,167.00,71.00,46.00,55.00,24.00,22.00,APPROVED
OH: TOLEDO,01/07/2014 22:52:00,,1220.00,561.00,161.00,69.00,45.00,53.00,23.00,22.00,APPROVED
OH: TOLEDO,01/07/2014 23:52:00,,1220.00,543.00,160.00,71.00,43.00,53.00,23.00,22.00,APPROVED
OH: TOLEDO,01/08/2014 00:52:00,,1217.00,543.00,159.00,70.00,43.00,54.00,23.00,21.00,APPROVED
OH: TOLEDO,01/08/2014 01:52:00,,1221.00,550.00,161.00,70.00,46.00,52.00,22.00,22.00,APPROVED
OH: TOLEDO,01/08/2014 02:53:00,,1220.00,540.00,158.00,68.00,45.00,52.00,23.00,21.00,APPROVED
OH: TOLEDO,01/08/2014 03:53:00,,1213.00,542.00,161.00,68.00,45.00,53.00,22.00,22.00,APPROVED
OH: TOLEDO,01/08/2014 04:53:00,,1225.00,551.00,164.00,69.00,43.00,54.00,23.00,23.00,APPROVED
OH: TOLEDO,01/08/2014 05:53:00,,1228.00,559.00,161.00,72.00,45.00,54.00,24.00,24.00,APPROVED
OH: TOLEDO,01/08/2014 06:54:00,,1239.00,565.00,165.00,72.00,46.00,53.00,22.00,22.00,APPROVED
OH: TOLEDO,01/08/2014 07:54:00,,1238.00,564.00,170.00,72.00,46.00,55.00,24.00,22.00,APPROVED
OH: TOLEDO,01/08/2014 08:54:00,,1235.00,567.00,166.00,71.00,46.00,54.00,24.00,23.00,APPROVED
OH: TOLEDO,01/08/2014 09:54:00,,1250.00,581.00,171.00,72.00,49.00,57.00,24.00,21.00,APPROVED
OH: TOLEDO,01/08/2014 10:55:00,,1289.00,600.00,175.00,77.00,49.00,56.00,24.00,23.00,APPROVED
OH: TOLEDO,01/08/2014 11:55:00,,1331.00,620.00,182.00,76.00,48.00,62.00,26.00,25.00,APPROVED
OH: TOLEDO,01/08/2014 12:55:00,,1324.00,629.00,187.00,78.00,50.00,61.00,25.00,24.00,APPROVED
OH: TOLEDO,01/08/2014 13:55:00,,1320.00,624.00,184.00,77.00,50.00,60.00,26.00,23.00,APPROVED
OH: TOLEDO,01/09/2014 15:11:00,,1269.00,577.00,164.00,71.00,45.00,55.00,23.00,22.00,APPROVED
OH: TOLEDO,01/09/2014 16:12:00,,1321.00,620.00,183.00,78.00,48.00,63.00,26.00,19.00,APPROVED
OH: TOLEDO,01/09/2014 17:12:00,,1322.00,640.00,187.00,80.00,49.00,64.00,26.00,18.00,APPROVED
OH: TOLEDO,01/09/2014 18:12:00,,1349.00,653.00,188.00,83.00,50.00,69.00,28.00,19.00,APPROVED
OH: TOLEDO,01/09/2014 19:12:00,,1356.00,679.00,196.00,83.00,51.00,71.00,28.00,19.00,APPROVED
OH: TOLEDO,01/09/2014 20:13:00,,1368.00,690.00,202.00,89.00,54.00,73.00,31.00,20.00,APPROVED
OH: TOLEDO,01/09/2014 21:13:00,,1391.00,695.00,203.00,87.00,54.00,74.00,30.00,20.00,APPROVED
OH: TOLEDO,01/09/2014 22:13:00,,1441.00,739.00,215.00,92.00,58.00,77.00,30.00,21.00,APPROVED
OH: TOLEDO,01/09/2014 23:13:00,,1485.00,766.00,229.00,96.00,58.00,80.00,32.00,20.00,APPROVED
OH: TOLEDO,01/10/2014 00:14:00,,1516.00,795.00,237.00,103.00,63.00,85.00,34.00,21.00,APPROVED
OH: TOLEDO,01/10/2014 01:14:00,,1535.00,807.00,239.00,103.00,62.00,86.00,35.00,20.00,APPROVED
OH: TOLEDO,01/10/2014 02:14:00,,1463.00,770.00,224.00,98.00,61.00,82.00,32.00,20.00,APPROVED
OH: TOLEDO,01/10/2014 03:14:00,,1449.00,758.00,225.00,95.00,58.00,80.00,33.00,21.00,APPROVED
OH: TOLEDO,01/10/2014 04:14:00,,1464.00,793.00,237.00,100.00,62.00,86.00,34.00,21.00,APPROVED
OH: TOLEDO,01/10/2014 05:15:00,,1509.00,836.00,251.00,110.00,65.00,89.00,37.00,21.00,APPROVED
OH: TOLEDO,01/10/2014 06:15:00,,1517.00,854.00,261.00,115.00,69.00,94.00,39.00,22.00,APPROVED
OH: TOLEDO,01/10/2014 07:15:00,,1523.00,877.00,267.00,116.00,69.00,98.00,41.00,22.00,APPROVED
OH: TOLEDO,01/10/2014 08:15:00,,1502.00,856.00,258.00,115.00,69.00,95.00,40.00,23.00,APPROVED
OH: TOLEDO,01/10/2014 09:16:00,,1464.00,820.00,244.00,109.00,65.00,91.00,39.00,21.00,APPROVED
OH: TOLEDO,01/10/2014 10:16:00,,1467.00,825.00,248.00,112.00,67.00,93.00,38.00,21.00,APPROVED
OH: TOLEDO,01/10/2014 11:16:00,,1456.00,821.00,243.00,112.00,64.00,91.00,37.00,21.00,APPROVED
OH: TOLEDO,01/10/2014 12:16:00,,1424.00,799.00,239.00,111.00,64.00,92.00,37.00,22.00,APPROVED
OH: TOLEDO,01/10/2014 13:17:00,,1419.00,784.00,236.00,108.00,63.00,88.00,36.00,21.00,APPROVED
OH: TOLEDO,01/10/2014 14:13:00,,1424.00,791.00,233.00,109.00,62.00,85.00,36.00,22.00,APPROVED
OH: TOLEDO,01/10/2014 18:50:00,,1330.00,768.00,209.00,125.00,62.00,79.00,43.00,26.00,APPROVED
OH: TOLEDO,01/10/2014 19:50:00,,1342.00,772.00,211.00,125.00,63.00,80.00,46.00,25.00,APPROVED
OH: TOLEDO,01/10/2014 20:50:00,,1323.00,745.00,206.00,114.00,58.00,79.00,40.00,22.00,APPROVED
OH: TOLEDO,01/10/2014 21:50:00,,1332.00,768.00,211.00,125.00,61.00,82.00,44.00,25.00,APPROVED
OH: TOLEDO,01/10/2014 22:50:00,,1317.00,772.00,211.00,128.00,62.00,81.00,48.00,26.00,APPROVED
OH: TOLEDO,01/10/2014 23:51:00,,1319.00,786.00,214.00,129.00,65.00,84.00,47.00,26.00,APPROVED
OH: TOLEDO,01/11/2014 00:51:00,,1329.00,802.00,215.00,138.00,68.00,86.00,48.00,27.00,APPROVED
OH: TOLEDO,01/11/2014 01:51:00,,1361.00,825.00,223.00,140.00,67.00,87.00,49.00,28.00,APPROVED
OH: TOLEDO,01/11/2014 02:51:00,,1537.00,974.00,261.00,163.00,78.00,100.00,55.00,29.00,APPROVED
OH: TOLEDO,01/11/2014 03:51:00,,1590.00,978.00,263.00,161.00,79.00,100.00,56.00,30.00,APPROVED
OH: TOLEDO,01/11/2014 04:52:00,,1587.00,987.00,269.00,165.00,80.00,104.00,56.00,31.00,APPROVED
OH: TOLEDO,01/11/2014 05:52:00,,1512.00,920.00,250.00,151.00,76.00,95.00,52.00,29.00,APPROVED
OH: TOLEDO,01/11/2014 06:52:00,,1441.00,856.00,239.00,140.00,70.00,90.00,48.00,29.00,APPROVED
OH: TOLEDO,01/11/2014 07:52:00,,1407.00,837.00,231.00,137.00,70.00,87.00,48.00,28.00,APPROVED
OH: TOLEDO,01/11/2014 08:52:00,,1439.00,862.00,237.00,144.00,70.00,90.00,48.00,28.00,APPROVED
OH: TOLEDO,01/11/2014 09:53:00,,1389.00,819.00,226.00,136.00,68.00,87.00,47.00,27.00,APPROVED
OH: TOLEDO,01/11/2014 10:53:00,,1355.00,790.00,220.00,122.00,64.00,83.00,43.00,21.00,APPROVED
OH: TOLEDO,01/11/2014 11:53:00,,1338.00,770.00,216.00,117.00,62.00,81.00,41.00,22.00,APPROVED
OH: TOLEDO,01/11/2014 12:53:00,,1322.00,775.00,217.00,122.00,61.00,82.00,43.00,23.00,APPROVED
OH: TOLEDO,01/11/2014 13:53:00,,1325.00,777.00,214.00,130.00,66.00,84.00,46.00,26.00,APPROVED
OH: TOLEDO,01/11/2014 14:53:00,,1473.00,899.00,243.00,149.00,72.00,92.00,51.00,30.00,APPROVED
OH: TOLEDO,01/11/2014 15:54:00,,1604.00,997.00,269.00,167.00,81.00,103.00,56.00,31.00,APPROVED
OH: TOLEDO,01/11/2014 16:54:00,,1480.00,892.00,248.00,146.00,74.00,94.00,51.00,29.00,APPROVED
OH: TOLEDO,01/11/2014 17:54:00,,1375.00,806.00,223.00,127.00,66.00,85.00,48.00,27.00,APPROVED
OH: TOLEDO,01/11/2014 18:54:00,,1375.00,802.00,218.00,131.00,66.00,83.00,47.00,25.00,APPROVED
OH: TOLEDO,01/11/2014 19:54:00,,1587.00,990.00,266.00,160.00,78.00,102.00,54.00,31.00,APPROVED
OH: TOLEDO,01/11/2014 20:55:00,,1477.00,883.00,243.00,144.00,72.00,91.00,51.00,29.00,APPROVED
OH: TOLEDO,01/11/2014 21:55:00,,1415.00,831.00,227.00,132.00,66.00,85.00,48.00,26.00,APPROVED
OH: TOLEDO,01/11/2014 22:55:00,,1394.00,801.00,216.00,127.00,63.00,82.00,46.00,25.00,APPROVED
OH: TOLEDO,01/11/2014 23:55:00,,1407.00,823.00,222.00,129.00,68.00,86.00,47.00,26.00,APPROVED
OH: TOLEDO,01/12/2014 00:55:00,,1439.00,861.00,232.00,138.00,69.00,90.00,50.00,28.00,APPROVED
OH: TOLEDO,01/12/2014 01:56:00,,1482.00,905.00,245.00,154.00,75.00,97.00,53.00,29.00,APPROVED
OH: TOLEDO,01/12/2014 02:56:00,,1439.00,867.00,235.00,147.00,72.00,91.00,50.00,27.00,APPROVED
OH: TOLEDO,01/12/2014 03:56:00,,1404.00,832.00,226.00,136.00,69.00,86.00,47.00,27.00,APPROVED
OH: TOLEDO,01/12/2014 04:56:00,,1386.00,823.00,224.00,132.00,67.00,84.00,49.00,27.00,APPROVED
OH: TOLEDO,01/12/2014 05:56:00,,1399.00,829.00,222.00,136.00,68.00,87.00,50.00,27.00,APPROVED
OH: TOLEDO,01/12/2014 06:57:00,,1407.00,840.00,226.00,137.00,69.00,87.00,49.00,27.00,APPROVED
OH: TOLEDO,01/12/2014 07:57:00,,1403.00,827.00,226.00,134.00,67.00,86.00,49.00,27.00,APPROVED
OH: TOLEDO,01/12/2014 08:57:00,,1364.00,805.00,219.00,130.00,68.00,83.00,48.00,27.00,APPROVED
OH: TOLEDO,01/12/2014 09:57:00,,1341.00,779.00,213.00,124.00,65.00,80.00,44.00,26.00,APPROVED
OH: TOLEDO,01/12/2014 10:57:00,,1332.00,767.00,210.00,119.00,62.00,77.00,45.00,23.00,APPROVED
OH: TOLEDO,01/12/2014 11:58:00,,1346.00,764.00,207.00,118.00,61.00,80.00,46.00,25.00,APPROVED
OH: TOLEDO,01/12/2014 12:58:00,,1350.00,786.00,210.00,124.00,63.00,81.00,46.00,25.00,APPROVED
OH: TOLEDO,01/12/2014 13:58:00,,1365.00,792.00,215.00,125.00,66.00,81.00,46.00,26.00,APPROVED
OH: TOLEDO,01/12/2014 14:58:00,,1370.00,792.00,217.00,125.00,65.00,82.00,45.00,25.00,APPROVED
OH: TOLEDO,01/12/2014 15:58:00,,1356.00,787.00,214.00,123.00,64.00,78.00,45.00,26.00,APPROVED
OH: TOLEDO,01/12/2014 16:59:00,,1345.00,777.00,210.00,119.00,64.00,81.00,45.00,25.00,APPROVED